Santa Barbara, CA

5:13 PM PDT on April 27, 2017 (GMT -0700)
Santa Barbara Municipal

Weather History for KSBA - September, 2012

Change the Weather History Date:

Thursday, September 27, 2012

  Actual Average Record
Temperature  
Mean Temperature 66 °F 64 °F  
Max Temperature 72 °F 74 °F 100 °F (2010)
Min Temperature 59 °F 55 °F 43 °F (2005)
Degree Days  
Heating Degree Days 0 2  
Month to date heating degree days 12 35  
Since 1 July heating degree days 78 86  
Cooling Degree Days 1 1  
Month to date cooling degree days 59 42  
Year to date cooling degree days 180 169  
Growing Degree Days 16 (Base 50)    
Moisture  
Dew Point 60 °F    
Average Humidity 84    
Maximum Humidity 100    
Minimum Humidity 68    
Precipitation  
Precipitation 0.00 in 0.01 in 0.02 in (1967)
Month to date precipitation 0.08 0.21  
Year to date precipitation 6.80 12.41  
Since 1 July precipitation 0.10  
Sea Level Pressure  
Sea Level Pressure 29.89 in    
Wind  
Wind Speed 5 mph (West)    
Max Wind Speed 16 mph    
Max Gust Speed -    
Visibility 5 miles    
Events      
T = Trace of Precipitation, MM = Missing Value Source: NWS Daily Summary

Daily Weather History Graph

Daily Weather History Graph

Search for Another Location

Airport or City:

Trip Planner

Search our weather history database for the weather conditions in past years. The results will help you decide how hot, cold, wet, or windy it might be!

Date:

Astronomy

Sep. 27, 2012 Rise Set
Actual Time 6:51 AM PDT 6:48 PM PDT
Civil Twilight 6:26 AM PDT 7:13 PM PDT
Nautical Twilight 5:57 AM PDT 7:42 PM PDT
Astronomical Twilight 5:27 AM PDT 8:11 PM PDT
Moon 5:19 PM PDT (9/27) 4:30 AM PDT (9/27)
Length of Visible Light 12h 46m
Length of Day
11h 56m
Waxing Gibbous, 94% of the Moon is Illuminated
Sep 27
Waxing Gibbous
Sep 29
Full
Oct 8
Last Quarter
Oct 15
New
Oct 21
First Quarter

Hourly Weather History & Observations

Time (PDT) Temp. Dew Point Humidity Pressure Visibility Wind Dir Wind Speed Gust Speed Precip Events Conditions
12:53 AM 62.1 °F 60.1 °F 93% 29.88 in 7.0 mi East 5.8 mph - N/A   Overcast
1:53 AM 62.1 °F 59.0 °F 90% 29.88 in 7.0 mi NNE 4.6 mph - N/A   Overcast
2:53 AM 61.0 °F 59.0 °F 93% 29.86 in 5.0 mi NE 4.6 mph - N/A   Overcast
3:23 AM 60.8 °F 59.0 °F 94% 29.86 in 5.0 mi NNE 5.8 mph - N/A   Overcast
3:45 AM 60.8 °F 59.0 °F 94% 29.86 in 2.0 mi North 4.6 mph - N/A   Overcast
3:53 AM 60.1 °F 59.0 °F 96% 29.86 in 1.8 mi Calm Calm - N/A   Overcast
4:08 AM 60.8 °F 59.0 °F 94% 29.86 in 2.0 mi Calm Calm - N/A   Overcast
4:33 AM 60.8 °F 60.8 °F 100% 29.86 in 1.5 mi Calm Calm - N/A   Overcast
4:53 AM 60.1 °F 60.1 °F 100% 29.86 in 1.2 mi Calm Calm - N/A   Overcast
5:03 AM 60.8 °F 60.8 °F 100% 29.86 in 0.8 mi Calm Calm - N/A   Mist
5:14 AM 60.8 °F 59.0 °F 94% 29.86 in 1.0 mi NE 3.5 mph - N/A   Mist
5:22 AM 60.8 °F 59.0 °F 94% 29.86 in 0.8 mi NNE 3.5 mph - N/A   Mist
5:53 AM 60.1 °F 59.0 °F 96% 29.87 in 0.8 mi Calm Calm - N/A   Mist
6:53 AM 59.0 °F 59.0 °F 100% 29.89 in 0.8 mi NNE 5.8 mph - N/A   Overcast
7:07 AM 59.0 °F 59.0 °F 100% 29.89 in 1.5 mi NNE 5.8 mph - N/A   Mostly Cloudy
7:16 AM 60.8 °F 59.0 °F 94% 29.89 in 3.0 mi NNE 4.6 mph - N/A   Overcast
7:26 AM 60.8 °F 59.0 °F 94% 29.89 in 3.0 mi Calm Calm - N/A   Mostly Cloudy
7:53 AM 61.0 °F 59.0 °F 93% 29.91 in 3.0 mi North 5.8 mph - N/A   Overcast
8:53 AM 64.0 °F 59.0 °F 84% 29.92 in 3.0 mi SSE 3.5 mph - N/A   Overcast
9:53 AM 66.0 °F 59.0 °F 78% 29.93 in 7.0 mi Calm Calm - N/A   Mostly Cloudy
10:00 AM 66.2 °F 59.0 °F 78% 29.93 in 8.0 mi Calm Calm - N/A   Mostly Cloudy
10:15 AM 66.2 °F 60.8 °F 83% 29.93 in 8.0 mi SSE 3.5 mph - N/A   Partly Cloudy
10:20 AM 66.2 °F 60.8 °F 83% 29.93 in 8.0 mi SSE 4.6 mph - N/A   Partly Cloudy
10:33 AM 66.2 °F 60.8 °F 83% 29.93 in 9.0 mi South 8.1 mph - N/A   Partly Cloudy
10:53 AM 69.1 °F 60.1 °F 73% 29.93 in 10.0 mi SE 8.1 mph - N/A   Partly Cloudy
11:53 AM 69.1 °F 60.1 °F 73% 29.92 in 6.0 mi South 6.9 mph - N/A   Haze
12:53 PM 70.0 °F 60.1 °F 71% 29.90 in 9.0 mi South 5.8 mph - N/A   Haze
1:53 PM 71.1 °F 60.1 °F 68% 29.88 in 10.0 mi SW 5.8 mph - N/A   Partly Cloudy
2:53 PM 72.0 °F 60.1 °F 66% 29.86 in 10.0 mi WSW 6.9 mph - N/A   Partly Cloudy
3:53 PM 70.0 °F 60.1 °F 71% 29.85 in 10.0 mi WSW 8.1 mph - N/A   Clear
4:53 PM 68.0 °F 60.1 °F 76% 29.85 in 9.0 mi West 9.2 mph - N/A   Clear
5:53 PM 66.0 °F 60.1 °F 81% 29.85 in 9.0 mi West 8.1 mph - N/A   Clear
6:29 PM 62.6 °F 59.0 °F 88% 29.85 in 6.0 mi West 9.2 mph - N/A   Haze
6:53 PM 62.1 °F 59.0 °F 90% 29.85 in 6.0 mi West 10.4 mph - N/A   Haze
7:53 PM 62.1 °F 59.0 °F 90% 29.88 in 4.0 mi West 5.8 mph - N/A   Haze
8:53 PM 63.0 °F 59.0 °F 87% 29.90 in 9.0 mi West 3.5 mph - N/A   Overcast
9:53 PM 63.0 °F 59.0 °F 87% 29.92 in 8.0 mi West 3.5 mph - N/A   Overcast
10:53 PM 63.0 °F 59.0 °F 87% 29.92 in 8.0 mi Calm Calm - N/A   Overcast
11:53 PM 63.0 °F 59.0 °F 87% 29.92 in 8.0 mi Variable 3.5 mph - N/A   Overcast